Regional Weather Roundup
Issued by NWS Newport/Morehead, NC

Current Version | Previous Version | Graphics & Text | Print | Product List | Glossary On
Versions: 1 2 3 4 5 6 7 8 9 10 11 12 13 14 15 16 17 18 19 20 21 22 23 24 25 26 27 28 29 30 31 32 33 34 35 36 37 38 39 40 41 42 43 44 45 46 47 48 49 50
000 ASUS42 KMHX 222122 RWRMHX WEATHER ROUNDUP FOR EASTERN NORTH CAROLINA NATIONAL WEATHER SERVICE NEWPORT/MOREHEAD CITY NC 400 PM EST MON DEC 22 2014 NOTE: "FAIR" INDICATES FEW OR NO CLOUDS BELOW 12,000 FEET WITH NO SIGNIFICANT WEATHER AND/OR OBSTRUCTIONS TO VISIBILITY NCZ015>017-031-032-045>047-102-103-222200- NORTH COAST CITY SKY/WX TMP DP RH WIND PRES REMARKS EDENTON CLOUDY 50 50 98 N7 29.99F FOG ELIZABETH CITY CLOUDY 55 52 88 N9 29.99S KITTY HAWK FOG 55 55 100 N5 29.95S VSB 1 MANTEO CLOUDY 55 55 99 N6 29.97R FOG $$ NCZ045>047-081-094-103-104-222200- CENTRAL COAST CITY SKY/WX TMP DP RH WIND PRES REMARKS FRISCO CLOUDY 54 54 100 N6 29.95R SWANQUARTER N/A 54 N/A N/A N8 29.94S $$ NCZ095-097-098-100-101-222200- SOUTHERN COAST CITY SKY/WX TMP DP RH WIND PRES REMARKS BEAUFORT CLOUDY 50 50 100 NW10 29.99R FOG CEDAR ISLAND N/A 50 N/A N/A W5G13 30.03R JACKSONVILLE CLOUDY 47 45 93 N8 30.00R PINEY ISLAND N/A 53 50 89 NW8 29.98R WILMINGTON CLOUDY 46 45 96 N6 29.99F FOG $$ NCZ011>013-027>030-043-044-078>080-089-090>093-098-222200- COASTAL PLAIN CITY SKY/WX TMP DP RH WIND PRES REMARKS AHOSKIE CLOUDY 43 42 96 N6 30.04R FOG CLINTON CLOUDY 43 43 100 N5 30.03R FOG ELIZABETHTOWN CLOUDY 43 43 99 N5 30.00F GOLDSBORO CLOUDY 42 42 99 VRB6 29.98F GREENVILLE CLOUDY 43 43 100 NE7 30.03F HAVELOCK CLOUDY 50 48 93 NW9 30.00S FOG KENANSVILLE CLOUDY 43 43 99 CALM 30.01S FOG KINSTON CLOUDY 43 43 100 N7 30.01F FOG NEW BERN N/A 50 46 86 N8 30.00S FOG RICHLANDS CLOUDY 45 43 93 N8 30.00F ROCKY MOUNT CLOUDY 41 39 93 N9 30.04S WASHINGTON CLOUDY 46 45 95 N8 30.01F WHITEVILLE LGT RAIN 44 43 96 N5 30.00R $$ AMZ130-135-150-152-154-156-158-170-250-252-270-ANZ085-086-088-633-658-670-222200- MARINE OBSERVATIONS STATION/POSITION TIME TEMP WIND PRES WAVE SWELL AIR SEA DIR/SP/G HT/PER HT/PER (UTC) (F) (DEG/KT/KT) (MB) (FT/S) (FT/S) CHESAPEAKE LIGHT 2100 51 60/ 26/ 29 1016.2 64 E VA BEACH 2100 59 54 60/ 17/ 21 1014.7 8/ 7 DUCK 2100 52 46 20/ 16/ 18 1013.7 2 E DUCK 2100 48 N/A 9/ 8 10 NE DUCK 2100 51 N/A 9/ 7 OREGON INLET 2100 55 48 70/ 2/ 3 1014.4 13E OREGON INLT 2100 53 N/A 10/ 8 2/11 HATTERAS CG 2100 52 53 360/ 4/ 4 1014.6 DIAMOND BUOY 2100 71 1013.6 9/ 8 17 S OCRACOKE NOT AVBL CAPE LOOKOUT 2100 51 330/ 12/ 15 1015.3 BEAUFORT LAB 2100 50 51 350/ 7/ 12 1014.2 30 SE NEW RIVER 2100 53 60 340/ 16/ 17 1015.6 5/ 8 3/ 8 5 SE WRIGHTSVLE NOT AVBL 225 S CAPE HAT 2025 72 72 220/ 14/ 16 1015.3 5/ 6 3/ 7 41 SE CHARLESTON 2100 62 73 10/ 14/ 17 1014.3 4/ 8 3/ 8 $$

USA.gov is the U.S. government's official web portal to all federal, state and local government web resources and services.